When you browse on this site, cookies collect data to enhance your experience and personalize the content and advertising you see.
Visit our Privacy Policy to learn more. By continuing to use the site, you agree to this use of cookies and data.

Meteo pe oră la Sopot

Astăzi, 9 Iulie, Joi

Timp Temperatura Precipitaţii Vânt Presiune Umiditate
00:00 +9°C° 0 mm 5 m/s 760 mmHg 86%
01:00 +9°C° 0 mm 5 m/s 760 mmHg 88%
02:00 +9°C° 0 mm 5 m/s 760 mmHg 89%
03:00 +8°C° 0 mm 5 m/s 760 mmHg 90%
04:00 +8°C° 0 mm 5 m/s 760 mmHg 91%
05:00 +10°C° 0 mm 5 m/s 760 mmHg 85%
06:00 +13°C° 0 mm 5 m/s 760 mmHg 80%
07:00 +14°C° 0 mm 5 m/s 761 mmHg 74%
08:00 +17°C° 0.1 mm 4 m/s 761 mmHg 69%
09:00 +18°C° 0.1 mm 4 m/s 761 mmHg 65%
10:00 +19°C° 0.1 mm 4 m/s 761 mmHg 60%
11:00 +19°C° 0 mm 3 m/s 761 mmHg 59%
12:00 +20°C° 0 mm 3 m/s 760 mmHg 58%
13:00 +20°C° 0 mm 2 m/s 760 mmHg 57%
14:00 +20°C° 0.2 mm 2 m/s 760 mmHg 62%
15:00 +19°C° 0.2 mm 3 m/s 760 mmHg 67%
16:00 +19°C° 0.2 mm 3 m/s 759 mmHg 72%
17:00 +18°C° 0.6 mm 3 m/s 759 mmHg 80%
18:00 +16°C° 0.6 mm 2 m/s 758 mmHg 87%
19:00 +15°C° 0.6 mm 2 m/s 757 mmHg 94%
20:00 +14°C° 1.3 mm 3 m/s 757 mmHg 95%
21:00 +14°C° 1.3 mm 3 m/s 757 mmHg 96%
22:00 +14°C° 1.3 mm 4 m/s 756 mmHg 98%
23:00 +15°C° 0.6 mm 4 m/s 756 mmHg 97%

Mâine, 10 Iulie, Vineri

Timp Temperatura Precipitaţii Vânt Presiune Umiditate
00:00 +15°C° 0.6 mm 4 m/s 756 mmHg 97%
01:00 +15°C° 0.6 mm 4 m/s 755 mmHg 97%
02:00 +15°C° 0.2 mm 4 m/s 755 mmHg 96%
03:00 +15°C° 0.2 mm 5 m/s 755 mmHg 96%
04:00 +14°C° 0.2 mm 5 m/s 755 mmHg 96%
05:00 +15°C° 0 mm 5 m/s 755 mmHg 93%
06:00 +15°C° 0 mm 5 m/s 756 mmHg 91%
07:00 +17°C° 0 mm 4 m/s 756 mmHg 89%
08:00 +17°C° 0 mm 3 m/s 756 mmHg 86%
09:00 +18°C° 0 mm 2 m/s 756 mmHg 83%
10:00 +18°C° 0 mm 2 m/s 757 mmHg 80%
11:00 +18°C° 0 mm 2 m/s 756 mmHg 80%
12:00 +19°C° 0 mm 2 m/s 756 mmHg 80%
13:00 +19°C° 0 mm 3 m/s 756 mmHg 80%
14:00 +19°C° 0.1 mm 3 m/s 756 mmHg 81%
15:00 +20°C° 0.1 mm 3 m/s 755 mmHg 83%
16:00 +20°C° 0.1 mm 4 m/s 755 mmHg 85%
17:00 +19°C° 0.8 mm 4 m/s 755 mmHg 88%
18:00 +19°C° 0.8 mm 3 m/s 754 mmHg 92%
19:00 +19°C° 0.8 mm 3 m/s 754 mmHg 95%
20:00 +18°C° 0.1 mm 4 m/s 755 mmHg 95%
21:00 +16°C° 0.1 mm 5 m/s 755 mmHg 95%
22:00 +15°C° 0.1 mm 6 m/s 756 mmHg 95%
23:00 +14°C° 0 mm 6 m/s 756 mmHg 94%

Poimâine, 11 Iulie, Sâmbătă

Timp Temperatura Precipitaţii Vânt Presiune Umiditate
00:00 +14°C° 0 mm 6 m/s 757 mmHg 93%
01:00 +13°C° 0 mm 6 m/s 758 mmHg 93%
02:00 +11°C° 0 mm 6 m/s 758 mmHg 93%
03:00 +11°C° 0 mm 6 m/s 759 mmHg 93%
04:00 +10°C° 0 mm 5 m/s 760 mmHg 93%
05:00 +11°C° 0 mm 6 m/s 760 mmHg 89%
06:00 +13°C° 0 mm 6 m/s 760 mmHg 84%
07:00 +14°C° 0 mm 6 m/s 761 mmHg 80%
08:00 +15°C° 0 mm 6 m/s 761 mmHg 74%
09:00 +16°C° 0 mm 6 m/s 762 mmHg 69%
10:00 +17°C° 0 mm 6 m/s 763 mmHg 63%
11:00 +17°C° 0 mm 6 m/s 763 mmHg 62%
12:00 +17°C° 0 mm 6 m/s 763 mmHg 61%
13:00 +19°C° 0 mm 5 m/s 764 mmHg 60%
14:00 +19°C° 0 mm 5 m/s 764 mmHg 60%
15:00 +19°C° 0 mm 5 m/s 764 mmHg 59%
16:00 +19°C° 0 mm 5 m/s 764 mmHg 59%
17:00 +17°C° 0 mm 5 m/s 764 mmHg 63%
18:00 +17°C° 0 mm 4 m/s 764 mmHg 68%
19:00 +15°C° 0 mm 4 m/s 764 mmHg 72%
20:00 +14°C° 0 mm 4 m/s 764 mmHg 76%
21:00 +12°C° 0 mm 4 m/s 764 mmHg 79%
22:00 +11°C° 0 mm 4 m/s 765 mmHg 82%
23:00 +11°C° 0 mm 4 m/s 765 mmHg 84%

12 Iulie, Duminică

Timp Temperatura Precipitaţii Vânt Presiune Umiditate
00:00 +10°C° 0 mm 5 m/s 765 mmHg 85%
01:00 +10°C° 0 mm 5 m/s 765 mmHg 86%
02:00 +9°C° 0 mm 5 m/s 765 mmHg 87%
03:00 +10°C° 0 mm 4 m/s 765 mmHg 87%
04:00 +10°C° 0 mm 4 m/s 765 mmHg 88%
05:00 +11°C° 0 mm 4 m/s 765 mmHg 83%
06:00 +13°C° 0 mm 4 m/s 765 mmHg 77%
07:00 +14°C° 0 mm 5 m/s 765 mmHg 72%
08:00 +15°C° 0.1 mm 5 m/s 766 mmHg 68%
09:00 +16°C° 0.1 mm 5 m/s 766 mmHg 65%
10:00 +17°C° 0.1 mm 5 m/s 766 mmHg 61%
11:00 +17°C° 0.1 mm 5 m/s 766 mmHg 61%
12:00 +17°C° 0.1 mm 5 m/s 766 mmHg 61%
13:00 +19°C° 0.1 mm 5 m/s 766 mmHg 61%
14:00 +17°C° 0.1 mm 5 m/s 766 mmHg 61%
15:00 +17°C° 0.1 mm 5 m/s 766 mmHg 62%
16:00 +17°C° 0.1 mm 5 m/s 765 mmHg 63%
17:00 +16°C° 0 mm 5 m/s 765 mmHg 67%
18:00 +15°C° 0 mm 5 m/s 765 mmHg 72%
19:00 +14°C° 0 mm 4 m/s 765 mmHg 76%
20:00 +13°C° 0 mm 4 m/s 765 mmHg 80%
21:00 +12°C° 0 mm 4 m/s 765 mmHg 84%
22:00 +11°C° 0 mm 4 m/s 765 mmHg 88%
23:00 +11°C° 0 mm 4 m/s 765 mmHg 90%

13 Iulie, Luni

Timp Temperatura Precipitaţii Vânt Presiune Umiditate
00:00 +11°C° 0 mm 4 m/s 764 mmHg 93%
01:00 +10°C° 0 mm 3 m/s 764 mmHg 95%
02:00 +11°C° 0 mm 4 m/s 764 mmHg 95%
03:00 +11°C° 0 mm 4 m/s 764 mmHg 94%
04:00 +11°C° 0 mm 4 m/s 764 mmHg 94%
05:00 +13°C° 0 mm 4 m/s 764 mmHg 89%
06:00 +14°C° 0 mm 5 m/s 763 mmHg 83%
07:00 +16°C° 0 mm 5 m/s 763 mmHg 78%
08:00 +17°C° 0 mm 5 m/s 763 mmHg 73%
09:00 +20°C° 0 mm 6 m/s 763 mmHg 68%
10:00 +21°C° 0 mm 6 m/s 763 mmHg 63%
11:00 +21°C° 0.1 mm 6 m/s 763 mmHg 61%
12:00 +21°C° 0.1 mm 6 m/s 763 mmHg 59%
13:00 +22°C° 0.1 mm 5 m/s 763 mmHg 57%
14:00 +21°C° 0 mm 5 m/s 763 mmHg 58%
15:00 +21°C° 0 mm 5 m/s 763 mmHg 59%
16:00 +21°C° 0 mm 5 m/s 763 mmHg 60%
17:00 +20°C° 0 mm 5 m/s 763 mmHg 67%
18:00 +19°C° 0 mm 5 m/s 763 mmHg 73%
19:00 +16°C° 0 mm 5 m/s 763 mmHg 80%
20:00 +15°C° 0 mm 4 m/s 763 mmHg 85%
21:00 +14°C° 0 mm 4 m/s 763 mmHg 90%
22:00 +13°C° 0 mm 4 m/s 763 mmHg 95%
23:00 +13°C° 0 mm 4 m/s 763 mmHg 95%

14 Iulie, Marţi

Timp Temperatura Precipitaţii Vânt Presiune Umiditate
00:00 +12°C° 0 mm 4 m/s 763 mmHg 95%
01:00 +12°C° 0 mm 3 m/s 763 mmHg 95%
02:00 +12°C° 0 mm 3 m/s 762 mmHg 95%
03:00 +12°C° 0 mm 3 m/s 762 mmHg 95%
04:00 +12°C° 0 mm 3 m/s 762 mmHg 95%
05:00 +13°C° 0 mm 3 m/s 762 mmHg 88%
06:00 +15°C° 0 mm 4 m/s 762 mmHg 82%
07:00 +18°C° 0 mm 4 m/s 762 mmHg 76%
08:00 +18°C° 0 mm 4 m/s 762 mmHg 71%
09:00 +19°C° 0 mm 4 m/s 762 mmHg 66%
10:00 +20°C° 0 mm 4 m/s 762 mmHg 60%
11:00 +20°C° 0 mm 4 m/s 762 mmHg 60%
12:00 +20°C° 0 mm 4 m/s 762 mmHg 59%
13:00 +21°C° 0 mm 4 m/s 762 mmHg 59%
14:00 +20°C° 0 mm 5 m/s 761 mmHg 60%
15:00 +20°C° 0 mm 5 m/s 761 mmHg 62%
16:00 +20°C° 0 mm 5 m/s 761 mmHg 63%
17:00 +19°C° 0 mm 5 m/s 761 mmHg 68%
18:00 +18°C° 0 mm 4 m/s 761 mmHg 74%
19:00 +17°C° 0 mm 4 m/s 761 mmHg 79%
20:00 +15°C° 0 mm 4 m/s 761 mmHg 83%
21:00 +13°C° 0 mm 3 m/s 761 mmHg 87%
22:00 +12°C° 0 mm 3 m/s 762 mmHg 92%
23:00 +12°C° 0 mm 3 m/s 762 mmHg 92%
Arată mai mult